Dewpoint
50 51 51 51 50 50 50 50 50 50 52 53 53 55 57 57 56 55 55 57 55 53 51 52 50 49 47 47 43 43 41 43 44 42 42 43 41 42 40 41 43 41 41 37 37 36 30 48 48 43 48 53 55 58
50 50 50 50 50 50 50 51 51 51 52 54 53 54 57 57 56 57 54 56 57 54 48 54 53 53 50 47 43 45 44 44 46 44 44 44 42 42 43 38 44 43 44 44 44 43 50 51 50 51 53 55 56 60
50 50 50 50 50 50 50 50 50 51 54 55 55 54 58 57 56 56 53 55 55 53 50 50 46 50 54 54 49 43 46 45 45 47 46 45 43 43 39 41 43 45 48 49 48 50 50 49 52 52 53 54 54 56
49 49 49 50 50 49 49 49 50 51 54 55 56 57 56 55 55 55 54 55 56 54 51 45 52 52 53 53 54 49 44 45 45 47 45 45 42 45 43 44 43 44 49 49 46 49 50 49 51 52 50 51 51 53
49 49 49 49 50 49 49 49 50 50 53 55 54 54 53 53 53 53 52 54 56 52 47 49 49 49 51 52 52 52 46 46 48 45 45 43 45 46 46 45 42 44 48 45 43 53 53 51 51 50 50 50 51 51
49 49 49 49 50 50 50 49 49 49 52 53 54 53 53 53 52 53 52 55 55 57 53 46 49 51 50 50 50 51 50 49 47 45 45 45 45 47 43 43 47 45 46 46 47 49 49 49 49 49 50 50 49 50
49 49 49 49 49 49 50 50 50 50 51 52 53 54 53 52 50 48 50 54 53 56 53 49 46 49 52 50 46 46 46 48 47 46 46 45 47 48 45 41 46 46 48 47 47 50 49 49 47 50 49 48 53 53
50 50 50 50 49 49 50 49 49 50 51 51 53 53 53 52 52 50 51 52 52 52 54 50 47 47 48 47 45 48 46 47 47 46 47 45 46 47 44 48 48 46 47 47 47 48 46 45 49 51 50 51 53 53
50 50 50 50 49 49 49 49 49 49 50 51 53 53 52 52 49 50 56 54 55 54 52 50 47 43 49 48 48 48 48 44 48 45 45 46 46 44 48 48 48 49 49 49 49 50 49 47 48 51 50 51 52 55
50 50 50 50 50 50 50 49 49 50 50 51 50 48 46 48 53 55 55 53 52 53 52 51 50 47 48 47 47 47 47 45 44 45 47 45 43 51 50 52 55 56 56 54 49 49 49 49 50 50 51 52 53 55
50 50 50 50 50 50 50 49 49 49 50 48 46 45 49 52 52 50 48 48 50 49 51 52 51 45 49 45 46 48 46 46 43 44 44 44 43 49 49 50 53 56 57 57 57 56 53 52 51 50 52 53 54 56
50 49 50 50 50 50 50 49 49 50 49 47 48 50 52 50 48 44 44 47 47 47 52 51 48 48 48 50 46 47 46 47 43 47 44 43 48 49 48 49 51 53 55 56 57 58 57 54 53 52 52 52 53 57
49 49 50 50 50 50 50 49 49 50 50 50 48 45 46 44 39 38 37 41 45 49 52 52 47 48 49 48 46 46 45 45 48 45 43 46 48 48 49 48 49 50 52 55 56 57 59 58 56 55 53 53 53 57
49 49 49 50 50 49 48 48 49 49 48 44 42 36 40 39 39 40 39 43 47 49 52 51 48 51 49 48 47 46 46 46 43 43 44 43 48 48 48 48 47 48 50 52 55 56 57 58 58 57 55 55 56 57
49 49 49 49 48 48 48 47 47 50 46 41 43 36 36 39 40 41 42 43 46 51 52 52 51 52 50 49 50 46 45 41 42 43 42 44 48 48 47 47 46 46 48 50 52 54 56 57 57 58 58 56 56 59
48 49 48 49 48 48 48 47 48 48 45 42 42 40 41 40 40 41 40 40 46 51 53 52 49 47 48 49 46 43 41 41 41 42 44 48 49 48 48 48 48 48 48 48 50 53 55 56 57 57 59 58 57 59
48 46 49 49 49 48 48 46 46 43 40 39 41 42 42 43 43 44 43 46 51 50 46 48 45 43 47 45 45 46 44 44 46 44 46 52 52 51 50 50 49 49 49 49 50 51 54 56 57 57 58 59 57 58
46 48 49 49 48 47 46 46 43 41 37 40 39 41 41 45 44 43 42 47 50 49 48 45 49 45 43 42 44 47 49 50 52 52 50 51 53 54 52 51 51 52 51 52 51 51 52 54 55 55 57 59 58 58
47 48 48 48 47 45 41 42 43 37 39 41 43 42 41 43 46 45 43 47 48 51 49 47 44 44 45 48 47 48 50 50 49 50 50 52 53 52 52 52 51 52 51 51 52 49 50 53 54 55 57 58 57 56
48 48 49 48 47 43 39 40 44 39 37 41 41 40 39 37 43 44 39 44 46 44 45 43 43 44 46 50 52 52 52 53 49 45 44 46 50 51 51 51 50 51 50 52 52 49 51 52 54 55 56 57 59 57
47 48 48 47 45 43 40 40 40 38 38 38 38 39 36 38 37 38 37 39 43 39 38 42 43 48 46 48 51 50 50 51 50 48 43 42 46 50 50 52 52 51 51 50 49 48 50 52 54 55 56 56 58 60
48 48 45 46 41 41 40 42 40 42 41 38 40 41 39 35 35 36 38 38 35 34 36 38 41 43 44 45 45 47 48 51 51 50 47 48 48 47 47 49 51 50 51 51 51 50 50 51 54 55 56 56 56 60
47 45 43 42 37 36 36 43 38 39 36 38 40 39 39 38 38 39 35 37 37 39 39 39 41 44 42 43 46 44 46 48 46 49 47 46 48 50 50 51 52 51 51 51 53 53 53 49 53 55 56 57 58 59
46 42 38 37 37 35 35 37 40 38 39 37 37 35 37 40 41 40 34 35 36 39 39 43 41 39 41 43 41 41 43 44 43 44 46 49 48 46 51 50 52 52 52 51 52 53 54 54 51 57 56 57 57 58
36 36 37 33 37 36 33 32 34 34 33 35 35 34 35 41 38 35 34 36 37 38 41 41 39 39 38 38 39 40 43 42 41 42 43 48 47 50 51 52 52 51 52 53 53 53 53 54 55 55 55 55 55 57
31 35 34 34 35 33 33 33 33 33 34 34 34 34 35 37 33 30 33 38 45 47 48 47 48 47 44 43 43 43 44 46 46 44 45 46 47 47 48 49 48 46 52 53 53 53 52 53 55 55 54 54 49 54
32 32 35 37 37 38 37 36 39 38 35 33 35 36 37 32 30 34 45 47 47 49 50 46 47 46 44 44 45 45 46 46 47 46 46 47 46 46 46 46 47 48 53 53 54 54 54 54 55 54 54 55 57 56
34 38 34 36 36 39 35 34 35 36 35 38 40 34 33 33 36 46 45 47 48 46 48 49 47 47 47 44 47 45 44 46 46 46 45 45 47 48 50 50 50 46 52 54 54 55 56 56 54 53 52 52 55 57
35 36 37 36 37 37 37 35 35 38 42 42 37 35 38 41 41 41 41 42 45 45 43 41 41 42 42 43 44 43 44 44 43 43 42 42 43 45 48 49 49 49 50 53 47 50 55 55 53 53 52 51 52 55
32 35 34 33 34 33 34 35 36 39 44 43 42 40 39 39 40 41 41 41 41 40 41 41 41 42 41 42 44 45 48 48 46 46 44 46 47 49 51 50 49 49 50 52 54 55 46 52 52 54 53 53 53 52
32 33 33 32 32 33 34 35 36 37 37 37 38 38 35 36 38 41 46 48 47 45 43 41 41 45 48 46 46 48 47 51 51 50 48 48 47 49 49 50 49 51 52 52 52 55 55 54 54 53 53 53 53 52
32 31 29 28 29 32 35 34 34 34 34 34 34 37 37 37 35 43 48 49 46 43 46 47 46 45 46 46 46 48 44 48 48 48 48 48 48 49 50 49 49 53 53 54 53 52 52 52 52 52 52 52 52 53
32 32 32 32 32 32 35 37 37 38 40 41 41 42 42 43 40 47 48 49 50 49 49 48 46 46 47 47 46 47 44 46 46 42 42 42 43 45 46 47 48 50 53 54 54 54 52 52 52 51 52 52 52 53
Lifted_Index
16 16 16 16 17 17 17 17 17 17 16 15 15 14 12 11 9 8 7 7 7 6 5 5 5 4 4 4 4 4 4 4 3 2 2 2 2 2 1 1 1 0 0 0 1 1 1 0 -1 -1 -1 -2 -3 -3
15 15 16 16 16 17 17 17 17 16 15 15 14 14 12 11 10 8 7 7 7 6 5 5 5 5 5 5 5 5 4 4 3 3 3 2 2 2 1 1 1 0 -0 -0 0 1 1 0 -0 -0 -1 -1 -2 -3
13 14 14 15 16 16 17 17 17 16 15 14 13 13 12 11 11 9 8 8 7 6 5 5 5 5 5 5 5 5 5 4 4 3 3 3 2 2 2 1 1 0 -0 -0 -0 0 0 0 0 0 -0 -0 -1 -1
12 12 12 13 14 15 16 16 16 16 14 13 12 12 12 12 11 10 9 8 8 6 5 4 5 5 5 4 4 5 5 4 4 4 4 3 3 3 3 2 2 1 1 0 0 0 0 0 0 0 0 1 1 1
11 11 11 12 12 13 14 15 16 15 14 13 13 12 12 12 11 10 9 8 8 7 5 5 5 5 5 4 3 4 4 4 4 4 4 4 4 3 3 3 3 2 2 1 1 1 0 0 1 1 1 1 1 2
10 10 10 11 11 12 13 14 15 15 14 14 13 13 13 12 11 10 8 8 8 8 6 5 5 5 5 4 3 3 3 4 4 4 4 4 4 4 3 3 3 3 3 3 2 2 2 1 1 1 1 1 2 2
8 9 9 10 10 10 11 12 13 14 14 14 13 13 12 12 11 10 8 8 8 8 6 5 5 5 5 4 4 3 3 3 4 4 4 4 4 4 4 3 3 4 4 4 3 3 3 3 3 2 2 2 2 2
7 8 8 8 9 9 10 11 12 13 13 13 13 12 12 11 11 10 8 8 7 7 6 5 5 5 5 4 4 3 3 3 3 3 4 4 4 4 4 3 4 5 5 4 4 3 3 4 3 3 3 2 2 2
7 7 7 7 8 9 9 10 11 11 12 12 12 12 11 10 10 9 8 7 7 6 6 5 5 5 4 4 4 3 3 3 3 3 3 3 4 4 4 4 4 4 4 4 4 3 3 4 4 3 2 2 2 1
6 7 7 7 7 8 9 10 10 10 10 11 11 11 10 10 9 8 7 7 6 6 6 5 5 4 4 4 4 3 3 3 3 3 3 4 4 4 4 4 4 4 3 3 3 3 3 3 3 3 2 2 2 1
6 6 7 7 7 7 8 9 10 10 9 10 10 10 9 9 8 7 6 6 6 6 6 5 4 4 4 4 3 3 3 3 3 3 4 4 4 4 4 4 4 3 3 3 3 3 2 3 3 3 3 2 2 1
6 6 6 7 7 7 7 8 9 9 9 9 8 8 8 7 6 6 6 5 5 5 5 5 4 4 4 4 3 3 3 3 3 3 4 4 4 4 4 3 3 3 3 3 2 2 2 2 3 3 3 3 2 2
6 6 6 6 7 7 7 7 8 8 8 7 7 6 6 6 6 6 5 5 5 5 4 4 4 3 3 3 3 3 3 2 3 3 4 4 4 4 3 3 3 3 3 3 2 2 2 2 2 3 3 3 3 2
5 6 6 6 6 7 7 7 7 7 6 6 5 5 5 5 5 6 6 5 5 4 4 3 3 3 3 3 3 3 3 3 3 3 3 4 4 4 3 3 3 3 3 3 3 3 2 2 2 2 2 3 3 3
5 5 6 6 6 6 6 7 6 6 5 5 4 4 4 4 5 5 6 5 5 4 3 3 2 2 2 2 3 3 3 3 3 3 4 4 4 4 4 4 3 3 3 3 3 3 3 3 3 2 2 2 2 2
5 5 5 5 5 6 6 6 6 5 5 4 4 3 3 4 4 5 5 5 5 4 3 3 2 2 2 2 2 3 3 4 4 4 4 5 5 5 6 6 5 4 4 3 3 3 3 3 3 3 3 2 2 2
5 5 5 5 5 5 6 6 5 4 4 3 3 3 3 3 3 4 5 5 5 4 4 3 2 2 2 2 2 3 4 4 5 5 6 6 6 7 7 7 7 6 5 5 4 3 3 3 2 2 2 2 2 2
5 5 5 5 6 6 6 5 5 4 3 3 3 2 3 3 3 3 4 5 5 4 3 3 3 3 3 2 3 3 4 5 5 6 7 7 7 7 8 8 8 8 7 6 5 4 4 4 3 2 2 2 2 2
5 5 5 6 6 6 6 5 5 4 3 3 3 3 3 3 3 3 3 4 4 4 3 3 3 3 3 3 3 4 4 5 5 6 7 7 8 8 8 8 8 8 8 7 6 6 6 5 4 3 2 2 2 2
5 5 5 6 6 6 5 5 5 4 4 3 3 3 3 3 3 3 3 4 4 4 3 3 3 3 4 4 4 4 4 5 5 5 6 7 8 8 8 8 8 8 8 8 8 8 7 6 6 5 4 2 1 1
5 5 5 6 6 6 5 5 5 5 4 4 4 3 3 3 4 3 4 4 4 4 4 4 4 4 4 4 5 5 6 6 6 6 6 7 7 7 7 7 8 8 8 8 8 8 7 7 6 5 5 3 2 1
5 5 6 6 6 6 5 5 5 5 4 4 4 3 3 3 3 4 4 4 4 4 4 4 4 4 5 5 6 6 7 6 6 6 7 7 6 6 6 7 7 7 7 7 7 7 7 7 6 6 5 4 3 2
5 5 6 6 6 6 5 5 5 5 4 4 4 3 3 3 3 3 3 3 4 4 4 4 4 5 5 5 6 6 6 6 6 6 6 6 6 6 6 6 6 6 6 6 6 6 6 6 6 5 4 4 3 2
5 5 5 5 5 5 5 5 5 4 4 4 3 3 3 3 3 3 3 3 3 3 3 4 4 4 5 5 5 5 6 6 6 6 6 5 5 5 5 5 5 5 5 6 6 5 5 5 5 4 4 4 3 3
5 4 4 4 4 4 4 4 4 4 4 3 3 3 3 2 2 2 2 3 3 3 3 3 3 4 4 4 4 5 5 5 5 5 5 5 5 5 5 5 4 5 5 5 5 5 5 5 4 4 4 4 3 3
4 4 4 4 4 3 3 3 3 3 3 2 2 2 2 2 2 2 3 2 2 2 2 3 3 3 3 3 4 4 4 4 4 4 4 4 5 4 4 4 4 4 4 4 4 3 3 4 3 4 4 4 4 4
3 3 3 3 3 2 2 2 2 2 1 1 1 1 1 1 2 2 2 2 2 2 2 3 3 3 3 3 3 4 4 4 4 4 4 4 4 4 4 4 4 3 3 3 3 2 2 2 2 3 4 4 4 4
3 3 2 2 2 1 1 1 1 1 0 0 0 0 0 0 1 1 1 1 2 2 2 2 3 3 3 3 3 4 4 3 3 3 3 3 3 3 3 3 3 3 3 3 3 2 1 1 2 2 3 4 4 4
3 2 2 1 1 1 1 1 1 0 0 -0 0 0 0 0 0 0 1 1 2 2 2 2 2 2 3 3 3 3 3 3 2 2 2 2 2 2 2 2 2 2 2 2 2 2 1 1 1 2 3 3 3 3
3 3 2 2 1 1 1 1 1 1 0 0 0 0 0 1 1 1 1 1 1 1 1 2 2 2 2 1 1 1 2 2 2 1 1 1 1 1 1 1 1 1 1 1 1 0 0 1 2 2 2 2 3 3
4 3 3 2 2 2 2 2 2 1 1 1 1 1 1 1 2 2 1 1 1 1 1 2 2 1 1 1 1 1 1 1 1 1 1 1 1 1 1 1 1 0 0 -0 -0 -0 0 1 2 2 2 2 3 3
4 3 3 3 3 2 2 2 2 2 2 2 2 2 2 2 2 2 1 1 1 1 1 1 1 1 1 1 1 1 1 1 1 1 1 1 1 1 1 1 1 -0 -1 -1 -0 0 1 1 2 2 3 3 3 3
4 4 3 3 3 3 3 2 2 2 1 1 2 2 2 2 2 2 1 1 1 2 2 2 2 2 2 2 2 2 2 1 1 1 1 1 1 1 1 1 1 0 -1 -1 -0 0 1 1 2 2 3 3 3 2